Wind_Gust
21 20 19 18 19 19 18 19 19 18 18 16 15 15 15 15 16 17 17 18 19 18 19 19 18 18 19 20 21 22 20 30 31 27 24 27 13 15 10 10 12 11 12 19 19 20 20 21 24 23 25 25 26 27 24 25 21 24 30 28 30 27 29 22 31 22 16 18 20 16 12 14 19 17 18 16 21 22 20 27 19 18 15 18 30 36 35 33
22 21 20 19 19 18 18 18 19 19 19 19 17 15 15 15 15 17 17 17 18 18 18 18 18 18 19 19 21 21 26 30 30 30 35 18 12 11 14 15 15 14 13 21 21 21 22 24 24 24 27 28 21 28 22 29 25 28 28 30 30 27 28 26 19 17 16 19 14 12 12 13 14 14 16 22 23 26 26 26 21 23 22 30 31 32 32 32
21 21 20 20 20 19 19 18 19 19 19 18 18 17 14 15 15 17 17 17 18 18 18 18 18 18 18 20 19 21 29 31 29 32 15 20 14 11 15 17 16 15 20 21 21 21 23 21 23 25 28 27 27 28 25 29 29 28 27 30 31 24 22 13 11 10 13 17 13 13 14 15 12 18 12 21 21 26 27 29 25 26 28 28 30 29 32 30
21 21 21 20 20 20 19 18 18 18 19 19 19 18 18 15 15 15 17 16 17 18 17 18 17 17 18 19 19 30 28 29 33 23 22 13 12 12 13 12 14 19 22 25 23 22 21 21 22 26 28 29 26 28 31 27 33 26 33 32 26 27 31 20 15 14 11 12 14 14 11 16 18 19 16 15 22 26 25 25 27 29 32 32 30 31 32 32
21 21 21 21 20 20 19 19 19 19 19 19 19 18 17 18 15 15 16 17 17 16 16 17 16 16 18 18 21 28 26 27 19 20 19 12 11 17 16 15 13 22 24 22 24 22 21 23 23 26 30 33 27 26 29 28 28 24 30 27 26 16 16 11 14 14 15 10 15 15 15 20 14 17 19 18 25 26 27 24 24 24 28 32 33 34 33 31
21 21 21 21 20 20 20 20 19 18 19 19 19 19 18 18 18 15 15 16 16 17 16 16 17 16 17 19 29 23 21 21 19 18 9 11 13 17 20 18 13 23 23 25 26 23 23 24 25 29 34 29 29 33 28 29 26 34 28 28 30 25 17 15 14 13 12 16 21 19 19 15 16 18 18 19 24 20 23 21 23 27 31 28 27 30 31 30
21 21 21 21 20 21 20 20 20 19 18 19 19 20 19 19 18 17 14 14 15 15 16 16 17 17 16 21 32 26 27 40 16 22 13 11 14 17 21 18 15 24 25 27 27 31 27 26 29 27 28 30 29 36 26 27 28 30 35 24 28 28 22 14 15 13 15 18 18 19 15 18 16 22 17 23 23 18 15 21 19 27 29 29 32 29 29 30
21 20 20 21 20 20 20 20 20 20 20 19 19 19 19 19 18 18 16 14 14 15 16 15 15 17 14 24 25 21 27 27 16 21 14 10 16 19 19 16 15 22 27 30 28 30 26 31 32 29 32 32 26 32 24 27 29 32 37 25 22 30 23 17 17 15 15 18 18 17 20 19 19 21 13 18 21 19 17 20 24 28 27 28 28 29 28 29
20 20 21 21 21 21 20 20 21 20 19 19 19 19 20 19 18 16 16 15 14 14 16 15 15 14 14 21 23 25 28 23 14 15 18 15 19 20 18 16 13 22 28 30 29 28 28 31 32 31 29 30 26 28 26 27 35 34 28 28 23 18 20 22 20 19 18 18 18 22 23 21 21 19 21 20 22 20 17 23 27 31 28 28 28 30 29 28
21 21 21 21 20 20 20 20 20 19 19 20 19 19 18 18 17 16 16 15 14 13 14 15 15 13 20 23 20 24 15 13 10 10 10 17 21 22 15 13 13 17 27 29 28 31 32 28 29 26 27 26 26 29 23 31 25 25 28 29 28 21 21 19 23 23 21 21 17 22 22 24 22 19 26 25 22 18 19 24 25 29 30 29 28 30 29 29
21 21 21 21 21 20 20 20 20 19 19 19 18 18 18 17 17 16 16 15 15 13 12 13 13 16 23 19 27 27 14 10 15 11 16 20 22 20 18 16 14 18 22 26 31 31 27 27 25 24 31 32 22 27 28 30 26 13 20 25 30 23 22 20 22 23 21 26 21 22 24 21 22 19 27 22 18 19 22 25 25 27 30 31 29 30 29 29
21 21 20 21 20 20 20 20 20 20 20 19 19 19 18 17 17 17 16 17 17 13 13 12 14 22 23 27 32 36 12 15 17 22 24 22 23 22 21 19 16 18 19 25 28 27 28 28 23 31 31 21 32 21 29 24 26 24 18 27 27 27 31 25 25 22 21 23 21 23 25 28 27 25 22 18 20 21 23 25 26 27 29 30 31 30 30 30
22 21 21 21 21 21 20 20 19 19 19 19 18 19 18 17 17 18 17 17 15 16 14 13 15 23 25 33 38 31 35 35 31 26 26 23 25 24 22 19 20 18 21 21 23 26 27 29 27 28 29 22 26 30 13 28 25 26 21 24 25 30 34 30 27 24 23 24 19 22 33 29 33 27 23 21 20 23 25 28 28 29 32 30 29 29 27 25
22 22 21 21 21 20 20 20 20 19 19 19 18 17 17 17 17 16 17 18 18 17 16 16 23 25 27 43 35 30 27 28 26 30 28 25 23 24 22 22 20 20 19 22 20 23 26 28 26 26 27 25 25 19 16 25 25 32 23 24 30 29 35 30 36 28 28 24 22 23 30 29 30 31 24 20 20 25 28 28 29 29 28 29 29 26 27 26
23 22 22 21 22 22 21 20 20 20 19 19 18 17 16 17 17 16 16 16 16 14 16 15 23 25 27 42 29 33 31 33 34 33 28 26 23 22 23 21 22 20 20 22 21 22 25 24 22 28 34 24 27 20 28 24 28 28 32 35 30 31 24 29 33 32 34 29 26 25 32 33 30 31 25 22 21 24 26 26 28 29 29 32 29 29 30 27
24 23 22 22 21 22 22 21 20 19 19 19 18 16 17 18 18 17 16 15 16 16 22 21 22 25 27 41 25 14 18 26 30 32 29 25 24 23 21 22 19 19 19 22 23 21 21 21 29 28 27 24 30 25 26 30 30 33 34 25 32 30 28 26 32 29 32 30 28 31 32 32 21 23 22 19 21 23 26 25 28 26 26 29 27 27 25 27
23 23 22 22 21 21 22 22 20 20 18 18 18 18 18 18 19 18 16 16 19 20 18 22 18 18 26 18 16 20 22 26 19 14 21 26 24 23 22 24 25 22 20 21 23 20 23 27 25 30 30 30 30 28 29 33 30 34 33 31 27 31 31 26 27 28 30 30 31 33 36 24 22 24 22 19 22 23 32 26 30 29 30 25 20 19 21 17
23 22 22 21 21 21 21 21 21 20 19 18 18 18 28 20 20 18 18 20 21 21 19 20 18 20 42 45 32 19 15 11 15 18 16 22 23 23 22 29 21 22 23 27 25 29 30 32 31 32 30 33 34 36 38 37 35 30 30 31 30 31 31 25 33 31 32 33 29 31 34 32 21 22 26 27 29 29 33 25 23 25 25 24 21 21 20 19
23 23 22 21 20 21 20 20 20 20 17 17 20 23 27 27 29 25 27 22 23 21 18 27 29 29 21 18 21 27 26 14 12 14 19 21 24 23 24 23 23 27 30 31 32 30 35 29 30 33 39 41 39 39 36 25 28 27 29 31 28 30 36 36 23 28 34 35 34 30 37 37 21 21 33 28 30 32 27 26 24 23 20 21 21 17 18 20
24 23 22 22 21 20 20 20 19 19 17 18 25 25 24 24 20 26 28 29 34 28 22 19 37 31 31 21 14 13 13 12 23 21 19 23 26 25 27 28 27 29 30 34 34 38 31 36 40 41 35 34 31 33 32 30 24 27 27 29 34 27 26 29 20 25 33 33 32 28 30 34 24 26 30 30 31 27 31 28 27 30 25 23 20 20 18 22
24 23 23 22 22 20 19 18 17 16 12 23 23 25 28 23 22 28 18 28 30 30 33 34 28 29 33 26 19 13 20 23 22 22 25 24 23 27 33 31 33 34 34 29 33 32 32 37 37 33 31 31 32 30 31 34 23 24 26 29 33 28 29 30 23 23 29 30 30 28 28 33 27 28 33 31 26 22 23 26 27 24 27 28 29 21 19 18
24 24 23 22 21 20 18 16 15 13 10 22 24 30 27 24 23 17 15 27 23 29 31 33 33 38 35 34 28 21 15 21 22 19 23 26 29 36 31 34 34 34 30 33 31 37 39 42 34 31 31 29 31 31 31 35 26 27 26 28 30 32 27 27 23 23 26 30 27 29 29 30 27 32 33 27 23 19 20 24 28 29 25 32 30 27 23 21
24 23 23 22 20 19 16 16 13 9 24 25 27 25 30 23 21 20 21 29 33 27 30 31 33 34 38 35 31 24 27 27 24 26 29 28 29 35 32 38 33 32 35 35 38 36 37 35 32 30 30 31 31 33 32 33 25 26 26 28 33 27 32 32 28 24 25 33 25 29 28 25 38 35 27 23 23 18 17 19 22 26 30 26 36 33 29 25
23 23 22 21 20 17 16 11 9 19 26 26 26 28 22 20 19 14 20 26 25 25 34 35 34 35 37 39 31 30 29 31 27 25 27 35 33 30 33 34 31 35 38 37 33 36 33 25 30 28 30 32 31 33 34 33 29 28 28 26 30 27 31 22 29 27 21 27 28 26 31 30 24 26 25 19 19 19 18 19 23 22 23 20 17 24 33 34
23 22 21 19 19 17 9 10 19 24 22 24 26 23 21 19 17 13 18 25 33 41 30 33 34 36 35 27 27 34 28 29 27 23 32 32 31 34 30 37 35 36 31 34 32 33 30 26 31 32 33 32 31 35 39 32 30 31 27 25 22 22 26 24 26 30 28 30 35 25 35 37 28 26 25 23 22 23 22 22 22 25 25 23 21 22 20 19
22 21 20 19 17 14 5 20 21 17 16 22 19 17 23 21 14 16 15 22 27 27 31 42 35 41 40 35 30 28 19 40 28 28 24 33 26 32 30 36 39 34 31 34 36 35 28 26 34 35 33 33 32 32 33 31 30 29 32 25 21 23 26 23 25 30 30 33 33 29 32 31 32 33 30 27 25 26 29 23 25 25 27 27 24 24 23 22
21 20 19 18 16 9 20 21 15 18 21 16 17 16 16 15 17 19 19 23 28 32 36 22 36 36 46 32 33 26 27 36 30 27 25 31 33 30 28 30 32 27 32 31 37 39 31 31 31 35 34 36 34 37 36 35 33 33 20 29 21 21 25 26 26 27 24 21 27 35 37 31 32 34 38 29 26 28 31 30 29 28 26 28 27 26 23 24
20 19 18 17 18 10 22 28 22 22 20 16 13 14 16 17 12 12 17 19 29 35 43 37 28 27 28 32 32 42 17 32 43 39 26 26 30 29 32 29 33 28 30 33 36 24 29 32 31 35 31 36 38 30 28 34 37 26 22 27 23 20 20 25 27 28 27 29 30 36 33 39 31 29 36 35 31 30 32 33 31 30 28 28 29 28 26 25
21 19 17 19 17 18 23 23 22 23 14 13 15 15 16 14 13 16 21 20 23 20 24 30 24 24 23 31 35 35 21 37 27 34 29 24 30 23 33 26 31 28 26 31 29 28 34 27 30 31 33 35 28 29 26 32 36 26 20 26 26 19 17 19 25 28 29 31 29 29 33 39 31 27 35 34 32 34 36 34 32 31 30 30 30 27 28 25
21 20 16 18 19 19 18 17 22 18 20 14 13 14 14 11 13 15 17 18 19 17 21 24 31 29 29 37 35 36 29 28 22 43 35 36 31 23 26 19 29 31 29 29 32 25 23 22 25 34 37 29 28 28 27 30 31 19 21 25 28 25 21 20 23 26 29 34 33 26 31 32 34 32 35 37 40 33 31 34 32 34 31 30 29 27 27 26
22 20 16 15 22 19 20 19 13 15 19 12 11 10 13 14 21 22 16 19 18 16 16 26 31 28 35 34 36 34 30 26 26 41 38 31 32 24 25 27 27 31 28 30 36 30 26 29 32 35 27 28 26 31 27 27 34 22 30 29 28 27 22 23 24 23 32 34 29 32 30 32 36 33 32 33 30 33 32 30 33 33 32 32 28 29 27 26
22 21 18 22 21 17 18 16 15 18 12 11 9 9 14 18 17 22 19 20 16 13 18 27 26 35 31 28 26 39 38 28 28 40 40 41 34 39 38 34 44 42 36 36 37 32 28 33 27 26 27 30 32 30 32 31 36 29 28 31 30 31 30 32 30 33 36 33 23 32 32 33 38 20 29 34 32 33 31 30 32 32 31 30 30 28 27 28
21 21 22 25 16 14 16 13 13 11 10 9 12 11 16 18 24 29 27 16 10 12 17 22 27 29 29 31 31 33 28 30 30 31 31 36 33 32 30 31 32 34 39 36 33 35 26 24 30 29 27 32 31 39 39 38 40 34 37 38 37 36 34 29 34 31 29 25 21 28 35 39 21 28 25 30 30 30 31 28 30 32 31 31 33 29 28 29
22 22 25 13 13 14 12 9 11 10 9 10 13 16 20 21 18 17 21 18 13 10 18 16 23 25 30 40 30 33 33 25 32 37 33 35 33 35 37 33 33 31 24 35 43 40 31 35 38 36 38 33 37 33 31 29 37 37 29 35 32 31 38 29 34 35 30 28 30 21 39 40 29 22 26 25 27 27 29 29 29 30 27 25 27 27 29 28
24 25 20 18 12 15 10 11 10 12 10 12 15 22 21 22 13 19 17 22 12 16 16 19 22 30 30 28 29 31 26 36 31 30 34 35 35 38 39 38 35 30 25 37 33 32 30 28 30 32 19 35 32 30 29 30 32 34 33 28 34 34 22 29 19 22 27 28 26 30 27 18 20 18 20 23 24 26 28 28 29 30 26 26 27 27 28 30
22 18 16 12 12 11 10 10 10 13 13 14 18 20 18 11 13 14 18 15 13 18 22 23 19 28 31 29 30 28 28 26 32 32 32 32 30 35 31 34 43 37 34 37 32 33 32 30 31 33 24 33 31 31 29 31 39 37 36 41 35 26 23 17 8 12 8 19 28 20 29 21 23 19 18 25 26 27 28 29 30 29 28 28 29 27 28 29
20 14 13 10 12 10 11 10 13 14 14 13 15 14 13 13 7 15 17 18 17 17 15 18 27 23 31 34 36 31 28 23 34 33 32 29 34 30 36 32 29 37 28 29 32 23 28 26 31 34 29 30 30 28 24 28 25 33 41 34 24 26 26 26 23 16 21 30 26 28 31 29 29 32 25 25 26 26 29 28 29 28 30 32 30 29 30 29
19 14 11 11 12 12 12 14 15 14 13 14 15 12 12 13 11 12 14 18 16 13 13 16 16 15 29 32 36 33 25 31 35 32 27 31 33 28 30 39 33 35 28 27 28 29 28 32 33 30 25 29 30 30 27 26 30 28 32 22 39 35 34 30 27 28 30 30 29 32 30 33 33 28 32 28 30 27 28 29 30 31 32 32 31 30 29 29
17 13 12 15 12 12 14 17 17 15 14 15 15 14 10 7 11 14 14 17 11 11 14 14 13 17 20 30 32 30 31 35 35 29 34 35 30 33 32 25 32 29 29 28 33 30 30 31 33 27 28 31 32 36 35 34 33 28 22 34 30 26 31 29 29 19 30 24 20 29 32 34 34 29 32 31 30 31 31 30 33 35 34 33 30 31 32 32
16 17 12 16 11 12 14 15 18 19 16 16 12 12 11 14 13 12 14 15 11 11 10 15 18 13 22 23 32 31 30 24 31 29 24 27 26 30 29 25 31 34 31 30 26 28 29 24 30 32 27 32 40 43 36 35 38 37 32 36 36 34 22 28 27 32 28 28 26 23 30 31 26 26 32 32 32 31 32 34 33 34 32 30 29 31 32 31
16 17 13 11 10 12 14 18 19 20 16 10 14 13 14 14 16 15 14 11 14 11 16 17 19 12 16 36 28 25 28 26 31 28 25 26 25 33 28 28 27 34 31 27 27 33 28 32 28 35 37 38 32 32 27 31 34 32 32 31 31 33 30 33 32 33 35 32 29 27 28 21 20 27 26 31 30 32 32 34 32 32 33 31 29 28 30 30
18 11 14 11 8 11 16 17 20 14 15 14 13 15 15 13 16 14 13 11 13 14 10 13 14 17 20 24 22 27 25 27 28 23 22 28 23 18 28 25 26 31 37 37 29 30 23 28 29 29 33 32 27 28 26 26 30 31 32 31 30 29 30 32 31 28 31 31 22 24 23 20 18 22 25 27 28 31 31 30 29 30 30 30 31 29 29 32
16 13 10 7 9 13 15 21 17 11 12 16 9 11 11 13 13 14 16 12 16 8 12 9 13 15 13 16 25 22 21 29 25 22 20 24 21 22 32 30 29 33 29 36 26 34 14 35 32 29 25 24 24 25 27 26 28 31 35 33 33 36 33 32 28 22 25 23 27 18 24 21 14 17 19 25 27 26 27 28 28 28 31 30 31 30 31 31
16 12 11 10 9 12 18 17 15 16 17 15 15 16 11 15 15 15 11 12 14 11 13 12 12 12 15 18 19 23 23 26 21 21 23 22 24 15 32 30 34 39 32 29 31 34 35 30 30 33 34 35 29 33 35 30 32 37 36 38 32 30 27 26 22 21 25 30 27 23 27 19 18 20 19 21 29 27 27 27 29 30 32 31 33 31 30 32
22 14 11 11 13 13 16 15 13 15 16 17 22 17 13 11 10 12 13 15 11 12 11 11 13 16 15 12 15 18 16 16 30 22 19 20 24 20 28 29 33 29 27 26 16 31 22 25 35 35 37 40 41 45 47 43 41 34 29 32 33 30 29 31 30 29 27 21 27 31 22 19 20 19 23 22 26 25 24 25 26 29 30 33 31 33 32 33
13 15 12 12 9 9 14 11 11 15 18 18 15 15 14 14 8 11 10 13 10 12 16 18 17 14 13 14 17 10 18 15 19 23 25 23 22 26 28 29 30 31 23 17 20 30 26 26 31 28 30 28 28 26 21 24 29 35 30 31 34 32 29 27 25 29 30 19 25 26 23 20 21 25 26 24 24 25 29 27 30 28 27 28 29 31 31 31
16 11 16 16 17 13 13 12 13 12 16 16 19 19 17 17 15 10 10 10 7 14 14 13 12 11 15 16 18 19 21 18 18 21 18 19 17 23 26 28 30 25 18 22 19 30 24 30 29 26 28 28 24 24 24 29 32 31 27 30 31 33 31 30 30 36 22 21 28 25 23 24 22 26 29 28 24 25 26 27 25 27 29 29 28 28 25 31
11 9 8 11 12 15 16 5 13 16 17 15 17 16 16 16 16 17 9 7 15 10 10 12 11 14 17 17 17 20 20 19 19 17 19 18 21 23 32 28 29 24 22 27 25 27 23 25 25 27 26 28 24 26 23 29 29 30 31 28 30 31 32 34 31 26 22 24 21 21 22 26 24 25 27 29 30 29 29 25 24 25 27 27 27 29 31 31
10 15 11 9 13 14 18 20 21 19 20 18 17 15 16 17 17 16 13 15 14 11 11 9 14 15 16 13 14 18 16 22 17 18 18 19 20 28 31 31 26 28 29 26 30 24 24 23 25 25 24 26 27 30 23 25 27 29 31 31 31 31 33 32 29 25 27 22 21 17 18 24 24 25 23 24 22 26 27 26 28 27 27 29 30 31 31 31
14 13 12 15 17 23 20 17 16 16 15 12 12 11 20 17 16 17 15 11 14 12 10 12 13 14 14 14 12 17 17 16 14 14 15 16 22 20 26 24 29 29 30 28 29 23 25 24 24 27 25 24 23 26 23 22 26 30 29 31 31 31 32 31 29 26 25 25 21 20 16 21 24 26 25 24 23 26 28 28 30 31 32 31 31 32 31 31
12 12 16 18 23 16 16 16 16 15 14 12 14 12 10 9 14 14 14 9 12 16 16 17 16 14 14 14 14 15 13 14 15 13 14 14 15 22 25 26 26 30 31 29 28 27 26 19 25 30 24 24 21 21 19 19 23 26 28 30 33 31 34 33 39 30 28 27 23 21 22 24 18 24 25 27 28 30 30 30 31 32 34 34 35 35 32 31
15 11 13 14 14 13 20 15 15 15 11 11 15 13 14 12 14 14 15 8 11 10 12 15 13 17 15 16 16 14 13 14 14 14 14 14 17 13 16 23 26 30 31 31 25 32 28 23 27 29 29 20 22 22 21 20 21 28 28 31 31 28 25 25 28 26 29 23 27 24 25 18 21 22 26 26 29 27 27 31 32 32 35 38 37 36 36 32
Wind_Speed
17 16 15 14 14 13 14 14 14 14 14 13 11 11 11 12 12 11 12 13 13 14 14 14 14 14 15 15 15 17 17 15 18 15 14 14 7 10 6 3 5 5 8 9 9 11 11 12 14 13 12 11 10 11 11 12 8 9 11 10 13 11 14 10 15 9 7 7 10 7 4 6 8 8 8 6 10 12 5 9 8 7 6 8 13 22 21 19
17 16 16 15 15 14 14 13 13 13 14 15 14 11 12 12 11 12 12 13 13 13 13 14 14 14 15 14 16 17 17 18 17 18 20 1 10 8 6 5 5 6 6 10 12 11 12 13 14 14 13 11 10 11 12 9 11 10 10 11 12 12 11 14 8 8 4 9 6 4 3 5 6 4 5 9 10 13 12 12 12 11 13 17 20 18 21 21
16 16 16 16 16 15 15 14 14 13 14 14 14 14 12 12 12 12 12 12 12 12 13 13 13 14 14 15 15 16 18 18 17 19 4 15 10 7 3 6 8 9 9 11 12 12 13 11 13 14 13 12 12 13 13 10 12 13 11 12 13 12 9 5 1 2 5 9 4 4 6 6 3 7 3 9 9 13 14 11 12 11 13 13 16 18 19 20
15 15 15 15 15 15 15 14 13 13 14 14 15 14 15 12 11 11 12 12 11 12 13 13 12 14 14 14 15 17 15 16 16 3 12 9 9 2 5 5 8 10 12 14 13 12 12 12 12 15 13 13 11 14 14 11 11 11 13 12 11 14 17 10 5 6 3 3 6 6 2 5 9 10 7 7 11 13 12 13 14 13 17 15 15 18 18 19
16 15 15 15 15 15 15 15 14 14 14 13 14 14 13 15 12 11 12 12 11 13 13 13 13 13 14 14 16 14 14 12 4 10 10 8 3 5 5 8 8 11 13 12 13 13 12 13 12 14 14 12 14 13 14 14 13 9 15 15 15 6 7 2 6 6 7 3 7 7 7 10 3 4 8 9 11 9 10 13 14 14 15 16 17 17 18 19
16 16 16 15 15 15 15 15 15 15 14 13 13 14 14 14 15 12 12 11 12 12 12 13 13 12 13 14 15 12 8 5 6 7 6 3 4 6 8 7 10 11 13 14 14 13 13 13 13 13 13 13 16 15 14 15 14 13 14 16 17 14 6 8 5 5 5 7 11 10 10 7 6 8 10 10 12 9 11 11 13 17 16 16 15 17 18 20
15 16 16 16 15 15 15 15 15 15 14 14 14 14 14 14 14 14 11 11 11 12 12 12 13 13 12 16 16 14 12 14 7 12 10 4 5 10 10 14 12 13 15 15 16 14 16 15 16 14 14 15 16 16 15 15 16 14 13 14 16 17 12 5 5 5 7 10 9 9 4 8 8 12 8 13 11 9 7 10 11 16 18 19 18 18 19 19
15 15 15 15 15 15 15 15 15 15 14 14 13 14 13 14 14 14 13 12 10 11 11 12 12 13 12 12 11 8 12 11 3 12 11 4 10 4 9 8 8 13 16 18 16 18 16 18 18 15 15 14 12 16 14 15 18 16 16 15 12 18 13 8 8 6 8 9 9 8 11 10 11 10 6 9 12 11 7 3 15 14 15 16 18 19 18 18
16 16 16 15 15 15 16 15 14 14 15 14 13 13 13 13 13 12 12 12 10 10 11 11 11 11 11 11 10 11 12 11 3 8 10 6 4 6 8 5 5 12 15 17 18 17 16 16 18 17 13 16 15 17 15 14 14 17 17 16 14 9 11 12 11 10 9 6 8 12 13 12 11 11 12 9 13 10 8 10 10 15 15 16 18 20 19 18
16 17 17 16 16 16 15 16 15 14 15 15 13 13 13 13 12 11 12 12 11 10 10 10 11 10 12 10 10 10 0 5 1 3 2 2 6 8 8 5 3 8 14 17 17 19 18 13 17 15 16 14 15 15 13 18 10 13 17 17 17 12 11 10 13 14 12 11 9 12 13 13 13 9 10 14 13 10 10 14 14 18 18 19 17 18 18 18
16 16 16 16 17 16 15 15 15 14 14 14 14 13 13 13 11 11 12 12 12 10 10 8 9 11 11 10 12 12 5 3 5 1 4 5 8 9 8 4 5 8 13 15 18 19 17 16 15 10 13 11 10 16 15 13 16 3 8 15 19 14 12 12 12 14 10 12 12 12 14 12 13 9 12 10 9 10 13 15 16 17 16 17 19 19 18 17
17 17 16 16 16 16 15 15 15 15 14 14 14 13 13 12 12 12 13 13 13 10 10 8 9 8 11 13 14 14 2 5 6 7 9 10 9 10 10 9 8 9 10 14 17 16 17 17 14 15 10 10 12 11 14 14 14 14 10 12 16 17 14 15 14 12 11 10 12 12 14 16 15 13 13 6 10 10 13 15 16 16 16 17 18 16 17 16
17 17 17 17 16 15 15 15 15 15 14 14 14 13 13 13 12 11 11 11 11 12 11 10 10 9 12 16 18 17 20 19 18 16 12 10 10 11 11 11 11 10 11 12 13 15 16 16 16 16 15 9 13 9 2 16 14 15 11 11 13 15 16 18 15 14 13 11 10 12 13 13 18 16 13 12 10 13 14 15 16 14 14 14 14 13 9 6
17 17 17 17 17 16 15 16 15 15 14 14 13 13 13 12 13 12 11 11 10 11 12 13 10 11 13 18 13 15 17 14 16 17 15 11 13 12 13 12 11 10 10 12 11 11 15 14 15 15 12 13 9 9 6 8 13 13 11 10 11 12 14 18 17 17 17 12 13 12 12 12 16 20 13 12 12 13 16 15 14 14 14 11 11 5 10 14
18 17 17 17 17 17 17 16 15 15 14 14 13 13 13 13 13 12 11 10 10 10 10 12 10 10 12 15 16 23 25 19 20 21 15 14 13 12 13 12 12 11 10 13 9 10 12 15 12 13 12 12 14 6 11 10 11 11 11 14 12 13 10 16 20 20 18 14 16 14 13 13 17 18 15 11 8 9 13 13 14 11 9 10 11 13 11 10
18 17 17 17 17 17 17 17 16 15 14 15 14 13 13 15 14 12 11 11 10 6 7 10 10 12 13 16 8 5 8 14 17 20 16 15 14 13 11 12 10 10 11 11 10 8 9 9 13 12 12 13 16 9 10 11 11 13 15 12 14 13 12 12 20 18 21 14 17 17 11 15 5 12 12 10 10 10 2 11 18 17 3 9 7 5 1 8
18 18 17 17 17 17 17 18 17 16 15 14 14 15 15 15 15 14 13 13 9 8 6 6 7 7 10 4 5 10 10 13 10 6 12 14 14 13 13 13 12 12 11 11 12 8 11 12 10 12 15 12 13 12 12 14 13 13 14 12 13 15 15 8 14 16 18 18 15 19 15 13 10 10 10 7 11 14 15 12 13 12 13 12 7 3 6 6
17 17 17 16 17 16 17 17 17 16 16 15 14 15 15 16 17 15 13 12 8 8 8 8 8 8 15 22 16 9 3 3 6 8 8 10 13 14 13 13 12 12 12 13 14 14 14 12 12 13 12 14 15 16 15 17 15 13 13 14 13 15 18 13 13 16 19 20 16 18 18 19 10 12 13 16 11 7 9 9 14 14 9 6 7 4 2 9
18 18 18 17 16 16 16 16 16 16 14 14 17 19 21 21 13 12 12 8 8 7 6 8 11 10 6 5 12 16 12 6 3 6 10 11 13 12 13 11 12 14 13 14 13 17 13 11 13 14 17 18 18 20 17 13 16 15 16 15 14 13 16 16 11 15 20 20 18 17 17 21 12 10 20 16 16 13 8 7 9 12 11 11 10 4 8 9
18 18 17 18 17 15 15 15 14 14 14 12 11 10 9 8 5 6 12 14 16 15 11 9 18 17 18 11 5 3 4 3 11 11 10 12 11 15 15 14 14 14 15 14 16 19 13 16 17 19 16 18 19 20 20 18 14 16 15 15 17 13 13 17 11 14 19 17 18 15 17 19 14 15 14 16 14 16 18 15 12 10 14 13 10 8 7 8
19 18 18 17 18 16 15 14 13 12 10 11 12 10 10 9 9 8 4 13 17 19 20 19 16 16 15 13 10 4 8 11 11 11 14 12 13 15 15 15 16 15 15 17 15 15 15 17 18 19 19 19 19 18 19 21 14 10 13 16 15 13 12 16 11 12 14 14 15 17 15 19 15 17 17 14 12 11 13 14 13 13 10 12 19 10 1 2
19 19 18 18 17 16 14 13 12 11 8 10 11 12 11 12 11 5 3 8 12 18 20 21 21 22 19 20 16 11 7 8 12 10 12 15 15 16 16 17 18 16 16 17 15 15 17 19 18 19 18 17 19 19 19 21 16 15 10 13 14 14 14 15 12 13 13 15 11 17 15 15 16 19 15 13 11 9 9 11 15 16 15 10 16 18 14 7
18 18 18 17 16 15 13 13 10 7 10 10 12 13 13 12 9 8 9 10 14 13 16 18 20 21 21 18 15 13 15 14 10 12 13 16 17 18 17 17 17 16 18 20 17 17 16 16 20 18 17 19 18 20 19 20 13 11 11 11 14 13 15 13 14 14 13 11 11 16 15 6 21 16 12 9 9 9 7 9 12 13 17 16 12 17 12 13
17 18 17 17 16 14 13 9 7 12 12 14 14 15 12 10 9 6 7 7 9 14 18 18 19 19 20 19 11 16 16 13 13 14 14 15 15 17 15 20 19 17 17 22 21 17 16 13 18 17 18 20 18 20 20 16 12 14 15 12 13 15 16 9 11 11 11 15 16 14 14 11 9 13 11 9 8 9 9 11 12 11 10 10 10 14 21 21
16 16 17 15 15 14 7 7 10 11 12 13 14 12 11 9 7 6 6 8 10 14 15 18 15 18 17 13 15 15 15 13 15 11 15 17 17 16 14 15 13 17 18 22 20 16 16 15 19 20 20 20 18 17 21 17 13 14 17 14 12 13 15 12 15 16 10 11 17 14 11 14 13 10 10 10 9 9 9 11 12 13 13 9 7 7 9 12
16 15 16 15 13 12 2 9 9 7 6 9 6 4 10 11 4 3 4 5 10 9 14 19 13 16 13 18 15 13 10 16 16 13 11 17 14 15 10 13 12 17 19 21 17 11 12 15 21 21 20 21 19 15 20 19 13 13 13 15 12 12 15 14 11 15 12 12 15 15 13 9 13 13 9 10 12 14 10 11 12 14 13 11 8 8 9 11
16 15 14 14 13 7 9 6 7 8 10 2 5 5 4 5 7 3 2 6 10 10 15 6 16 7 14 18 16 13 11 13 12 15 13 16 17 15 14 12 13 10 13 10 10 13 13 19 19 22 21 20 18 17 18 19 15 12 10 18 12 12 14 14 13 13 9 10 14 19 13 11 12 15 20 14 14 16 13 11 12 12 14 16 12 10 10 11
17 15 14 13 14 8 9 11 11 10 9 6 4 5 6 7 4 3 4 5 7 14 15 14 9 8 11 17 20 18 5 14 16 19 15 15 17 15 14 16 16 16 16 14 16 10 17 17 19 22 18 16 17 15 16 20 15 10 11 15 13 11 10 14 13 12 11 11 12 16 19 13 11 11 23 21 16 17 16 14 14 15 15 15 15 12 12 12
17 16 14 15 14 15 11 8 11 12 4 2 4 2 5 6 1 2 5 7 3 3 5 13 4 8 10 18 19 20 10 16 12 18 15 13 17 9 13 15 17 16 16 17 12 12 14 14 17 17 16 15 14 16 16 20 16 15 9 15 13 9 8 9 10 13 12 12 13 15 16 13 12 9 12 18 17 19 19 19 17 16 15 15 15 14 13 13
17 17 13 14 13 7 7 7 8 9 10 1 1 2 2 4 1 2 2 6 2 5 8 7 11 14 17 19 17 20 17 13 9 19 17 14 18 13 11 10 14 16 13 16 17 13 10 11 14 13 16 14 16 16 16 18 19 10 8 12 14 12 8 5 8 9 10 13 14 14 17 14 11 13 15 14 14 14 15 17 16 16 15 15 16 17 15 13
18 16 14 12 9 5 8 6 1 5 7 3 2 2 1 2 5 6 6 3 6 2 2 10 13 15 19 20 15 18 17 14 11 21 17 15 17 12 10 11 12 13 12 14 17 14 12 13 13 13 15 12 15 16 15 15 21 11 10 12 12 12 9 8 9 9 10 12 14 15 15 19 15 10 12 14 17 19 17 18 20 20 19 16 15 15 15 15
18 17 15 11 8 6 6 5 5 1 1 2 2 2 4 6 4 6 3 5 3 3 6 9 14 14 18 17 13 18 16 15 14 18 18 16 16 14 15 13 15 16 15 16 16 17 14 15 14 15 14 19 15 14 14 16 19 13 11 13 13 11 8 10 10 11 13 12 9 16 19 15 17 9 13 18 17 19 17 15 17 19 19 17 12 12 15 16
18 17 18 14 9 6 7 6 3 1 1 2 3 3 4 5 8 8 5 7 0 5 4 11 13 16 17 19 15 19 17 15 17 16 18 17 15 16 18 14 17 13 13 16 16 16 10 14 17 16 15 15 15 16 16 16 18 15 14 14 14 12 12 11 13 9 11 9 11 13 20 15 10 12 14 17 17 17 18 16 17 17 15 16 20 17 15 16
18 18 11 6 4 5 4 3 2 1 2 1 4 4 5 7 2 8 7 7 6 3 10 6 5 15 18 15 16 17 15 14 18 15 18 16 15 15 16 18 20 16 9 15 15 18 12 14 17 20 14 17 18 16 14 13 17 15 14 14 12 11 10 10 11 13 12 10 14 10 12 12 15 6 13 15 16 16 16 15 15 14 15 16 15 15 16 16
19 17 10 8 3 6 4 4 3 4 2 4 3 5 6 8 4 6 7 9 3 8 9 11 9 16 16 14 16 16 12 13 18 17 16 16 15 15 18 17 21 17 12 14 12 9 17 10 14 18 10 20 17 15 15 16 15 14 13 13 14 14 8 11 5 8 11 11 10 11 8 5 5 7 7 10 13 14 16 17 17 16 14 15 15 15 15 14
16 7 6 4 3 4 2 3 4 5 5 4 4 4 6 3 4 4 5 3 4 8 12 14 8 13 13 12 16 16 17 10 17 14 13 16 16 15 18 14 17 22 13 12 11 13 13 10 17 18 13 19 17 17 14 16 13 15 14 16 15 13 10 5 2 2 4 4 9 6 10 6 8 5 6 15 14 16 17 17 18 18 17 16 13 15 17 16
8 5 4 2 1 1 3 3 4 6 5 5 4 5 3 3 2 4 6 7 9 10 8 4 5 7 14 13 13 18 14 12 16 13 11 15 14 16 18 16 16 21 16 12 12 10 11 9 17 17 17 17 17 17 14 15 11 11 15 15 12 13 13 9 6 5 6 11 7 12 14 12 10 9 11 12 14 16 17 17 16 16 16 18 17 16 17 17
7 5 2 1 2 3 4 6 6 5 5 5 6 7 4 5 3 4 5 7 7 4 6 6 0 6 11 13 15 18 13 13 18 14 12 15 9 16 16 15 20 19 17 15 10 12 11 11 14 17 14 16 17 16 14 13 16 12 14 11 14 11 14 12 6 11 11 10 8 14 14 13 14 10 14 15 15 16 17 16 16 16 17 17 18 19 18 18
7 3 3 4 1 4 4 5 7 5 5 5 5 5 2 2 4 4 4 7 4 5 6 2 4 4 6 13 16 16 16 13 17 13 13 13 10 16 16 11 16 18 18 16 12 11 13 9 10 15 13 16 16 15 14 14 16 16 10 14 13 8 12 11 7 8 9 10 8 13 16 10 13 11 19 18 17 17 17 18 18 19 19 17 17 16 17 18
7 3 1 4 2 3 5 5 6 8 5 6 4 3 1 6 4 3 6 5 3 3 2 7 7 3 8 10 18 13 15 13 14 12 12 9 8 17 13 14 13 18 20 19 12 13 11 10 9 12 15 16 15 14 16 15 16 15 12 14 13 10 9 11 10 11 10 8 8 7 11 11 10 10 18 19 19 18 17 17 17 17 18 18 18 17 17 18
6 5 2 1 1 1 4 7 6 7 6 3 6 5 6 5 7 7 6 3 5 5 7 8 8 2 7 14 14 14 10 13 13 10 9 11 9 11 14 13 13 18 17 16 14 14 7 12 10 13 14 15 14 16 15 16 17 15 12 12 14 15 12 13 13 12 12 11 8 8 9 7 7 12 13 16 16 17 17 18 17 18 18 18 14 17 18 18
6 2 4 3 0 2 5 6 6 4 4 4 4 5 5 3 7 7 6 5 7 5 4 5 8 8 8 10 11 13 10 11 13 10 10 12 12 8 12 13 15 17 12 13 13 14 8 9 10 11 13 14 14 16 15 14 17 17 12 12 13 12 12 11 11 12 12 11 10 10 7 5 6 10 8 13 15 16 16 16 15 18 17 17 18 17 18 19
3 2 3 1 1 5 5 7 6 3 3 6 2 3 4 5 6 5 7 5 7 2 4 3 6 7 6 3 15 10 11 10 13 9 10 12 10 11 16 16 16 18 12 10 12 13 6 8 13 11 11 10 10 13 16 15 17 16 15 15 14 15 15 12 10 9 9 10 10 5 7 4 3 9 10 13 13 14 13 15 14 15 17 17 19 19 20 19
5 3 1 3 2 3 6 6 5 6 6 7 7 7 4 6 7 7 5 6 4 4 5 5 6 5 5 7 8 10 12 8 11 9 10 12 6 5 21 16 21 16 13 11 9 16 7 10 12 13 11 12 12 12 14 15 14 13 13 17 18 15 15 13 10 8 9 12 14 9 9 3 5 3 2 6 15 15 16 16 16 17 18 18 19 18 15 18
7 4 3 3 4 4 6 5 4 5 7 9 11 10 4 3 4 5 6 8 5 5 5 4 6 8 4 4 6 9 8 8 9 10 10 10 9 10 18 17 19 15 13 12 11 12 7 11 12 12 15 16 16 17 18 18 18 12 15 18 20 17 16 14 11 10 9 10 15 9 6 6 9 5 11 12 17 15 13 15 13 17 19 20 17 19 17 19
3 5 2 3 2 2 5 4 4 5 7 9 8 7 7 5 1 5 5 6 5 6 7 9 8 6 4 5 6 3 7 7 7 8 11 9 9 9 14 17 16 17 16 12 13 14 7 11 13 10 11 11 12 12 11 13 12 14 17 19 20 19 17 14 11 11 10 7 9 12 8 9 11 11 11 6 10 13 14 12 17 15 16 16 18 16 15 16
5 3 5 5 6 4 4 4 5 5 6 8 7 7 9 9 7 1 5 2 2 6 5 5 4 3 7 8 8 8 9 10 10 10 9 9 7 9 16 17 16 14 12 8 8 12 9 10 16 15 15 15 10 7 9 13 15 16 15 17 19 21 19 16 11 12 12 9 11 9 10 10 9 13 14 13 13 14 14 14 15 15 16 17 15 14 14 14
3 2 2 4 5 5 6 1 5 7 9 7 7 7 8 9 9 7 1 1 6 2 3 1 4 6 9 8 8 7 11 8 10 8 10 7 11 13 13 16 15 13 9 11 14 10 9 7 15 15 15 13 13 16 14 15 16 17 17 16 18 19 21 18 15 14 12 8 8 12 13 12 12 13 15 13 13 13 16 15 15 15 16 14 13 16 19 20
3 5 3 3 5 6 8 11 12 10 11 9 6 7 8 9 9 7 6 6 6 3 4 1 3 6 8 4 6 7 8 9 4 3 6 9 11 13 12 16 14 15 13 10 13 8 7 9 15 14 12 14 13 12 11 12 14 17 18 17 17 18 19 19 14 13 15 13 11 8 10 15 12 11 13 13 6 11 11 11 14 16 17 16 16 17 18 17
4 4 4 7 7 11 11 8 8 8 7 6 4 5 8 9 9 10 8 5 5 4 4 4 3 4 6 6 3 6 4 1 4 6 6 7 10 9 12 11 12 15 15 12 10 9 9 8 12 15 12 13 14 16 15 14 13 15 17 19 18 18 18 18 16 15 14 15 12 12 6 8 10 12 8 11 12 10 12 14 16 16 17 18 18 18 18 17
4 5 6 7 9 6 7 8 7 6 5 4 4 5 5 4 8 8 7 4 5 8 8 7 8 5 7 6 7 5 4 5 6 4 1 3 3 12 9 11 13 14 16 12 11 10 10 4 13 12 10 10 11 5 5 8 13 16 16 18 20 19 18 16 14 15 14 14 14 13 10 8 7 13 13 14 14 16 15 15 15 16 19 21 22 21 18 19
6 5 6 6 5 7 8 8 7 6 3 4 6 6 6 7 8 8 6 2 3 4 6 8 6 7 4 3 5 5 5 4 5 4 3 6 8 3 7 10 12 13 12 11 10 10 10 7 9 10 12 8 11 11 12 10 11 13 14 17 19 17 15 13 14 15 15 13 14 10 10 7 9 7 14 14 17 16 14 15 15 16 17 19 21 22 21 20
Wind_Direction
339 334 331 327 325 320 316 305 291 290 296 291 287 294 296 299 305 308 307 310 314 314 314 320 320 317 312 319 320 321 311 303 296 285 267 253 278 83 50 350 313 293 280 278 255 239 225 216 212 208 211 216 209 227 211 202 222 207 221 232 230 234 238 232 245 239 242 239 136 178 165 224 238 184 217 198 234 241 229 193 212 191 179 119 121 136 143 154
343 339 336 334 330 327 321 316 309 295 289 291 292 286 290 296 300 300 306 309 314 312 315 319 317 316 317 320 323 313 310 296 289 281 264 164 86 61 7 323 280 279 276 248 238 218 221 207 208 201 208 215 199 221 200 195 212 212 216 224 236 225 239 244 268 232 211 239 148 117 140 243 253 344 159 235 207 212 215 200 206 173 86 101 117 135 152 150
343 343 339 335 334 332 327 323 314 305 289 286 287 288 286 291 294 298 302 305 314 314 314 316 316 315 322 323 320 310 297 294 286 269 270 82 83 63 17 280 265 250 233 233 224 228 225 211 203 201 209 221 197 215 199 198 199 214 229 224 231 242 240 312 291 303 248 351 160 212 155 211 246 229 35 245 222 199 214 200 172 166 121 137 144 148 150 153
341 342 341 337 336 333 331 326 318 314 305 295 287 287 291 285 293 294 297 304 312 314 313 311 316 317 318 323 320 304 296 292 278 195 96 83 61 85 271 253 240 232 233 245 253 245 234 245 213 207 211 224 200 218 195 197 199 194 230 236 231 222 242 202 222 247 272 236 237 223 222 239 226 226 244 241 246 201 210 197 184 178 157 155 153 152 158 156
339 338 338 338 335 332 331 331 326 318 316 307 293 287 282 284 285 292 295 304 308 307 314 311 312 315 316 318 306 294 294 293 97 85 95 68 101 280 259 255 234 229 223 230 236 249 246 233 229 208 223 211 222 202 216 205 207 218 225 237 248 235 287 339 214 234 236 228 259 232 233 229 66 247 237 242 246 214 201 192 191 163 160 152 154 158 161 159
337 336 335 334 334 332 331 331 331 327 320 316 302 288 286 285 285 283 290 296 300 304 310 315 316 317 315 315 293 286 284 246 47 107 125 110 276 274 281 272 245 232 217 222 223 223 225 222 222 211 211 226 215 213 203 217 192 233 221 231 239 256 264 241 210 213 212 216 221 226 226 265 272 254 235 231 236 249 194 207 183 154 154 153 168 163 167 163
331 332 332 331 331 330 329 327 329 327 325 319 315 305 289 281 284 286 286 294 297 301 308 315 316 315 324 295 276 262 255 274 267 126 106 222 307 274 293 274 215 210 213 212 216 217 214 218 214 211 213 221 226 222 212 210 210 224 238 214 230 246 230 255 235 146 214 242 237 230 263 254 244 243 220 233 227 248 315 173 164 137 147 154 173 169 169 169
327 328 328 328 327 327 325 324 324 325 323 323 319 312 299 284 275 278 286 284 292 297 301 312 318 311 321 303 298 253 235 248 249 128 106 217 267 256 284 266 195 199 207 212 206 213 209 214 209 213 220 218 213 224 212 217 217 217 232 238 224 231 225 223 225 190 223 229 233 240 242 240 237 250 251 243 229 197 179 87 123 132 148 163 173 170 171 170
324 323 325 323 324 323 323 322 321 323 323 323 322 317 309 296 284 283 281 280 284 290 299 303 310 316 307 284 285 283 261 245 293 137 144 206 286 307 299 266 194 205 208 210 213 214 213 212 216 213 218 221 226 229 216 222 218 220 228 235 239 232 217 218 228 230 229 230 227 229 234 239 241 244 255 254 241 169 183 173 166 154 174 176 174 168 174 171
321 321 319 320 318 321 320 320 320 320 319 320 321 318 315 306 290 280 277 277 278 284 295 305 300 318 290 279 273 262 292 53 70 219 189 265 300 297 270 287 271 230 212 210 211 214 214 210 218 210 240 237 229 233 222 220 236 204 222 236 237 220 231 226 233 231 232 236 227 236 230 231 230 225 238 226 219 158 174 175 166 168 177 182 172 171 174 169
318 316 316 315 315 314 316 316 317 315 316 316 316 317 318 314 295 273 276 277 272 276 285 297 303 296 281 275 255 243 65 205 80 107 216 287 298 276 270 291 280 259 231 213 216 213 215 227 210 224 226 238 237 237 225 223 229 232 244 224 235 227 222 225 222 236 223 222 224 232 235 235 236 217 246 206 155 163 189 178 169 172 174 181 176 173 171 166
314 315 314 312 311 310 312 312 313 313 312 315 314 313 315 312 304 282 267 267 272 269 272 282 296 279 268 262 250 241 110 293 318 303 284 287 279 271 277 270 261 256 240 222 214 212 219 221 224 218 221 202 244 243 227 234 221 229 215 239 226 226 228 220 225 215 219 231 209 218 238 229 231 227 223 161 162 171 191 178 178 179 179 181 180 173 167 160
309 308 311 309 308 307 307 309 308 312 312 312 315 312 309 310 305 290 275 274 270 276 285 277 274 281 284 268 253 259 271 278 280 278 275 267 267 267 264 254 248 244 243 241 220 214 214 221 227 225 230 218 219 221 326 219 219 233 226 239 226 220 227 221 220 223 214 225 209 202 223 223 224 220 199 151 170 186 198 189 186 185 178 181 174 169 110 136
305 303 302 302 304 306 304 304 307 306 311 310 311 312 304 305 302 295 275 267 272 273 280 283 274 274 269 266 273 266 272 268 268 268 261 261 261 259 250 240 235 233 227 240 248 222 218 220 225 241 238 237 227 203 256 213 212 220 211 220 239 220 223 212 214 207 223 204 211 196 234 226 216 210 163 166 167 197 196 182 196 190 182 173 144 105 179 165
306 305 300 299 299 298 300 301 301 303 304 307 306 308 300 293 294 291 278 264 262 262 277 277 262 280 271 274 268 254 240 250 260 257 253 246 243 243 232 223 217 221 221 221 232 237 219 214 219 227 226 220 248 265 216 217 196 213 215 216 220 237 223 209 196 202 210 196 203 206 230 237 225 173 152 153 160 192 209 192 189 196 174 170 146 178 157 156
313 308 304 299 298 295 295 296 298 300 299 302 304 298 294 286 281 281 271 257 250 254 245 263 263 245 279 285 281 91 217 224 236 240 233 231 229 230 216 212 206 211 212 203 225 226 215 200 211 212 221 201 228 222 212 211 202 205 220 217 213 215 238 215 181 195 203 201 192 210 226 223 38 112 147 143 165 200 170 38 26 9 17 112 234 116 37 115
318 313 310 306 300 296 293 292 293 294 298 298 301 287 277 276 274 269 258 248 239 223 227 248 264 275 263 273 301 234 232 216 232 214 208 205 213 224 215 195 200 199 197 194 208 207 194 206 198 220 226 219 207 215 209 210 204 204 207 225 214 208 220 214 160 195 192 211 194 205 227 232 161 168 136 98 68 70 80 85 74 51 30 40 34 52 123 42
318 316 312 309 303 300 295 291 289 289 293 297 292 296 285 273 266 260 249 235 233 230 234 241 258 283 253 237 254 230 45 69 174 229 203 183 207 209 226 193 189 191 187 182 201 202 188 202 196 213 198 216 201 210 216 204 202 197 195 214 215 209 217 217 185 181 198 202 211 196 219 235 138 193 125 78 86 57 45 101 117 113 94 49 41 64 152 157
325 319 316 311 307 303 298 293 290 290 290 292 288 271 262 260 259 252 248 225 209 199 212 200 205 195 30 47 208 250 260 249 236 228 195 193 187 209 218 206 189 182 187 186 181 201 181 206 197 211 205 201 205 206 214 217 203 208 198 205 219 206 200 224 168 185 195 193 214 195 210 229 192 134 105 128 139 150 166 107 117 121 137 135 125 151 208 176
329 326 320 314 308 302 301 297 293 291 292 284 280 275 267 249 221 236 229 227 222 218 227 226 193 221 274 262 235 52 341 227 229 215 214 191 182 193 207 202 186 197 192 196 170 200 175 200 199 206 205 201 207 209 215 226 221 212 208 206 220 217 200 211 207 175 187 200 207 204 209 226 215 129 124 117 145 154 157 167 158 160 148 139 132 168 208 152
327 329 323 318 310 307 300 301 296 292 288 276 281 276 267 277 265 261 295 239 230 227 236 244 215 222 243 259 263 316 293 196 229 205 212 173 195 180 192 199 189 195 200 196 178 186 190 208 209 204 207 202 204 210 213 225 237 258 221 205 214 212 212 199 192 155 185 210 195 216 207 222 219 129 133 130 141 144 150 158 156 152 146 146 135 128 149 352
328 324 327 318 314 305 302 297 300 294 272 273 269 260 260 266 289 323 252 286 237 229 238 241 243 244 245 256 264 283 287 270 195 211 185 180 186 193 175 200 188 196 187 195 176 186 201 210 205 202 204 207 205 209 211 223 220 222 243 198 213 203 227 187 185 167 189 209 209 201 218 215 223 128 139 153 158 141 153 162 158 154 155 176 145 151 163 173
325 327 322 323 313 308 302 300 302 282 276 262 255 255 258 276 285 296 292 278 279 253 235 231 236 240 245 249 243 229 247 240 226 198 186 193 180 209 173 196 190 196 187 196 188 187 201 209 206 198 200 209 203 206 209 218 222 218 225 205 209 200 211 183 174 168 193 205 210 193 210 141 84 115 131 162 144 145 165 162 156 166 166 192 172 145 159 175
326 325 327 322 317 309 304 310 283 263 255 259 265 263 268 271 275 266 256 262 277 243 225 229 231 232 232 233 217 233 229 231 243 208 183 198 193 200 196 198 191 201 194 198 198 195 203 194 200 199 199 208 204 198 205 209 202 217 221 217 209 205 209 216 153 171 190 202 235 196 204 162 136 120 142 154 144 147 157 160 161 179 187 190 304 151 165 174
324 327 326 327 315 310 316 309 273 264 270 255 252 254 257 261 261 260 282 275 250 253 244 246 227 232 234 222 229 221 214 240 230 233 176 200 191 191 209 191 206 202 200 195 201 204 205 195 188 199 198 201 204 195 204 201 207 209 221 229 222 214 208 192 168 179 185 203 215 230 196 211 160 152 142 164 158 166 168 162 167 179 177 190 169 158 159 170
322 322 329 324 322 314 325 275 265 282 273 268 268 356 357 310 243 28 194 239 263 257 200 224 193 225 201 211 203 214 204 225 215 229 181 197 209 201 185 202 211 197 204 190 202 210 202 190 189 198 194 194 203 204 200 201 208 208 197 227 243 231 219 197 174 185 193 205 186 217 219 209 173 165 189 184 180 174 162 166 172 174 182 182 170 163 165 166
318 317 321 326 319 323 279 276 336 299 280 275 35 328 256 221 80 158 212 224 260 222 222 172 165 165 182 190 181 180 199 215 191 218 203 189 209 206 215 194 191 227 199 189 198 206 205 194 187 195 194 192 198 205 192 193 209 214 190 201 229 258 243 180 193 197 205 212 183 203 215 236 196 190 166 190 192 173 162 178 185 181 186 184 177 168 164 163
315 314 312 316 312 275 276 291 286 279 277 345 328 22 50 353 61 103 222 252 276 159 201 159 204 112 206 158 173 187 256 128 171 195 215 177 214 193 230 198 194 202 191 194 202 171 204 185 192 189 187 192 199 198 180 196 214 215 184 185 204 231 230 191 198 202 223 194 210 192 206 235 239 177 163 180 195 183 169 183 191 189 192 186 179 175 171 167
315 313 306 307 309 285 277 274 283 275 321 339 13 323 28 65 65 151 209 242 65 116 38 151 96 153 199 155 181 204 234 163 184 162 188 185 214 213 208 220 195 205 193 195 202 175 208 186 186 178 184 194 195 196 198 189 207 224 186 182 196 213 230 220 202 215 207 219 214 195 195 223 228 151 167 179 198 187 185 183 191 189 187 181 176 182 164 164
317 312 306 308 300 286 270 266 264 273 295 264 190 10 32 89 107 202 184 241 119 176 195 129 191 170 176 170 188 202 215 185 202 146 178 186 193 230 231 238 211 201 191 193 221 184 170 152 175 194 195 197 197 199 200 189 211 202 144 185 193 204 211 213 237 229 220 224 226 199 195 218 229 171 182 175 195 191 185 184 185 189 184 179 188 171 175 151
319 312 306 300 291 283 274 271 349 353 319 255 49 66 328 184 228 216 211 153 353 72 266 161 180 173 174 180 179 195 216 187 153 156 165 182 184 204 204 208 218 199 193 181 218 164 172 160 191 206 205 206 203 191 192 189 207 187 180 188 184 197 201 208 220 233 235 231 206 209 210 198 236 163 193 187 189 194 193 181 182 189 184 181 180 172 158 156
316 310 301 289 292 298 291 294 313 39 210 80 174 148 202 213 206 252 196 103 251 10 276 183 174 179 175 184 185 178 195 173 159 174 169 178 177 185 197 189 181 181 184 182 197 178 193 190 194 197 204 209 189 192 181 186 204 189 187 192 186 178 185 203 196 208 223 228 196 201 218 210 221 225 188 178 189 186 187 185 179 182 183 170 158 181 160 153
312 307 300 283 275 249 252 300 1 327 20 229 221 205 230 227 214 231 256 9 301 7 298 316 185 176 175 182 182 176 196 177 167 181 173 176 181 192 196 203 189 200 176 177 193 180 184 192 192 194 194 208 188 197 169 187 200 188 188 194 192 185 188 200 199 210 223 222 235 197 208 234 200 227 179 186 188 186 186 184 177 184 169 175 169 176 159 147
308 307 296 281 249 264 312 302 258 243 264 99 233 219 267 279 250 16 0 16 334 245 267 319 210 175 180 188 168 182 183 176 172 173 182 173 185 184 193 208 196 195 198 170 202 180 179 185 195 187 192 185 202 210 175 190 191 193 195 206 209 202 189 194 202 201 211 207 206 227 213 212 207 215 183 174 181 186 182 175 174 179 177 174 167 154 145 142
306 297 279 262 247 281 239 259 262 228 234 247 242 239 240 250 340 2 2 346 326 312 314 322 293 181 175 191 167 186 194 164 180 170 184 178 185 187 187 195 194 200 188 173 200 170 198 198 172 190 181 183 200 196 183 189 197 196 200 218 220 219 177 210 203 235 211 208 202 202 248 197 201 32 119 160 162 178 179 180 171 181 185 166 163 150 148 145
300 274 237 232 180 197 186 185 231 209 222 240 264 250 259 348 310 8 5 312 287 331 316 309 296 185 171 173 166 182 201 179 183 178 186 189 184 189 185 194 190 198 191 189 166 183 186 198 166 180 186 185 190 193 200 192 201 177 200 212 215 218 210 200 170 22 10 259 213 186 205 141 73 163 132 180 176 180 177 182 177 176 172 152 128 145 148 138
307 283 220 191 241 175 177 199 204 207 224 260 270 268 350 345 22 334 349 344 313 302 310 293 190 209 168 162 163 185 175 179 177 189 176 187 185 196 182 192 199 197 216 199 164 208 181 171 155 169 183 180 192 199 211 200 218 169 208 208 211 225 233 212 216 172 229 206 212 191 201 184 187 188 187 178 181 171 182 179 160 161 160 134 148 157 152 138
297 297 298 351 51 172 187 191 208 203 244 257 253 292 272 279 138 321 324 315 314 289 288 299 77 259 165 158 168 174 167 196 170 192 179 186 179 191 179 191 189 201 211 209 197 187 200 168 165 186 184 173 190 200 212 207 220 212 203 193 211 181 216 208 220 202 197 210 214 191 196 221 200 193 169 188 187 178 178 163 159 171 155 149 152 160 146 136
286 303 257 56 15 161 189 188 213 224 240 251 294 285 33 279 267 306 327 302 252 283 286 344 307 244 236 164 166 166 177 187 167 193 178 185 191 179 192 182 175 200 203 211 198 182 208 181 166 184 194 169 185 195 200 188 205 237 211 207 214 224 212 205 213 225 199 212 220 211 211 228 202 198 172 172 191 176 181 172 179 173 169 157 160 155 139 141
256 233 130 28 52 178 168 200 237 237 234 274 320 330 301 289 10 307 315 321 316 328 300 297 314 292 248 196 165 165 180 169 175 185 189 173 192 155 190 182 178 189 198 209 196 186 200 171 174 175 193 165 194 193 200 187 185 199 213 205 189 227 205 231 191 216 201 213 206 213 208 219 207 171 170 175 181 182 182 177 173 169 172 154 159 151 145 147
344 320 80 35 62 229 212 226 236 242 253 264 268 329 347 348 316 325 334 298 291 235 274 300 314 324 276 157 163 160 181 162 186 181 183 168 197 158 190 176 174 176 206 188 201 182 197 180 172 172 187 189 198 189 201 192 192 199 202 209 199 198 195 200 213 195 222 210 202 202 225 214 201 148 182 174 182 182 184 184 180 168 169 150 149 146 148 148
293 274 48 50 45 250 270 266 248 235 259 330 12 349 335 339 295 324 327 321 283 289 254 281 291 284 297 167 147 163 171 163 184 183 169 171 158 190 149 170 180 177 188 186 191 177 182 182 173 185 190 188 194 169 210 200 200 206 196 213 212 203 212 198 217 195 214 227 221 212 217 212 101 143 165 171 179 182 183 185 177 169 157 154 150 150 149 147
339 12 70 323 163 282 280 270 256 244 354 30 305 252 303 289 310 323 316 319 316 275 285 298 312 313 309 217 147 167 162 164 185 176 170 179 163 204 160 174 176 183 188 178 201 179 192 179 176 184 183 179 196 176 202 216 207 205 203 218 212 210 202 217 214 211 215 212 229 193 231 120 144 156 179 175 179 184 187 178 169 160 143 152 147 151 153 144
331 338 133 157 239 269 284 319 4 354 344 339 329 319 319 294 304 319 304 305 316 312 316 309 296 313 321 300 173 155 157 154 182 180 169 166 168 158 153 177 180 182 186 177 211 161 205 181 181 176 180 170 191 181 196 212 216 207 204 209 221 215 203 221 242 224 233 217 225 214 213 155 152 165 94 221 180 183 182 171 171 148 139 149 151 151 149 147
302 289 258 149 187 247 295 347 320 324 329 325 328 321 356 297 279 300 295 297 306 296 301 301 299 312 300 267 182 146 157 168 165 184 168 183 126 173 160 179 178 170 195 178 232 155 219 183 179 186 179 176 186 188 189 192 203 199 210 207 217 223 207 202 219 212 225 211 224 221 215 111 139 171 176 195 188 178 167 158 150 131 145 148 151 152 152 151
332 331 34 177 225 256 261 278 287 305 315 325 324 337 333 339 166 216 256 286 282 288 283 280 284 251 224 200 170 161 165 168 150 160 175 143 124 166 166 173 180 166 198 157 223 161 221 213 197 203 194 193 196 191 176 189 191 209 199 208 201 215 217 213 209 224 222 202 224 215 201 138 158 173 178 188 185 150 146 134 126 136 144 151 153 152 151 153
298 323 346 339 320 235 286 294 285 271 295 330 316 341 329 329 329 83 163 311 281 322 304 275 288 238 178 173 166 172 167 163 155 176 155 134 153 142 168 174 186 159 62 125 207 166 225 212 213 199 200 213 180 189 169 195 201 206 205 204 207 205 218 217 207 217 221 226 220 218 162 163 160 183 182 184 186 157 162 141 145 139 148 151 152 146 143 139
309 42 304 7 306 318 322 275 323 315 304 303 302 312 311 327 357 5 298 312 317 297 323 285 260 254 177 170 156 152 151 158 178 152 133 131 139 147 163 177 192 120 130 167 175 192 209 215 197 208 210 217 186 191 194 195 211 203 210 207 208 206 210 220 215 220 210 221 223 202 184 174 171 193 184 194 188 156 154 148 145 143 144 144 143 150 151 151
322 320 283 332 293 314 308 313 309 302 298 303 314 303 318 347 4 4 343 325 327 72 32 284 251 161 167 172 164 143 150 150 144 124 134 147 142 154 159 167 194 155 177 171 186 205 231 202 195 208 209 215 209 211 203 204 203 206 207 211 209 211 210 212 221 222 220 207 237 249 213 203 189 157 184 186 142 118 132 138 139 143 148 146 153 157 155 154
2 336 334 330 295 287 284 284 292 297 304 300 279 332 331 354 353 349 352 338 335 0 197 341 4 178 161 161 163 126 98 146 108 142 180 135 146 171 156 176 161 167 181 186 189 184 245 169 189 199 214 209 212 211 187 195 209 219 209 211 212 212 214 208 208 213 224 233 224 248 258 245 157 157 153 132 126 145 144 154 153 152 152 154 158 163 161 159
315 297 304 308 308 297 295 278 268 286 288 280 270 336 343 355 336 347 338 337 307 316 338 349 7 355 141 149 135 113 54 68 132 237 13 111 151 154 165 173 171 162 181 176 195 170 227 191 189 194 205 185 209 247 218 216 225 223 218 211 211 208 213 207 208 206 210 210 218 230 224 206 201 159 161 161 137 151 168 168 165 169 168 165 164 165 165 161
317 306 300 290 283 302 297 302 293 291 286 347 321 339 332 321 325 347 339 356 323 332 326 329 40 359 49 130 105 65 23 322 348 8 351 84 285 156 186 173 182 170 177 178 184 185 203 205 188 191 206 196 186 207 215 220 227 228 225 214 208 210 215 212 211 210 211 212 215 212 216 204 167 182 148 152 156 160 175 179 179 176 175 174 172 168 164 159